ISS DEB (58174 NORAD) Tracking and Keplerian Element Data

This shows tracking and keplerian element data for the satellite.

Feedback or suggestion? Click here.




ElementValue
Catalog58174
NameISS DEB
Epoch Orbit1224
Epoch Day12.24634258
Epoch Year2024
RAAN9.5343
Inclination51.6383
Eccentricity0.0006311
Argument of Perigee57.5055
Mean Anonmoly302.6548
Mean Motion15.62628607
Decay Rate0.00122353
L11 58174U 98067WA 24012.24634258 .00122353 00000+0 13257-2 0 9993
L22 58174 51.6383 9.5343 0006311 57.5055 302.6548 15.62628607 12245



Live tracking and technical data element details for ISS DEB (NORAD 58174). ISS DEB can be tracked NOW for your location showing map with azimuth and elevation plus other details from your city location.







IsCatalogInMostPopularTable: catalog: 58174, numindb: 105
Update: records affected: 1



GetName: 58174 ISS DEB

Hit Count: updated at: Mon, 17 Nov 2025 06:44:04 GMT